Home   Weather   Arnsberg   Past weeks
Flag for Germany

Past Weather in Arnsberg, North Rhine-Westphalia, Germany — Yesterday and Last 2 Weeks

Now
41 °F

Passing clouds.


Feels Like: 33 °F
Forecast: 41 / 36 °F
Wind: 15 mph from South

Location: Dortmund / Wickede

Current Time: Nov 11, 2019 at 8:54:39 pm

Latest Report: Nov 11, 2019 at 7:50 pm


Visibility: N/A

Pressure: 29.59 "Hg

Humidity: 81%

Dew Point: 36 °F

Location of ArnsbergLocation

Past Weather in Arnsberg — Graph

°F

Arnsberg Temperature Yesterday

Maximum temperature yesterday: 48 °F (at 1:50 pm)
Minimum temperature yesterday: 32 °F (at 3:50 am)
Average temperature yesterday: 38 °F

High & Low Weather Summary for the Past Weeks

 TemperatureHumidityPressure
High59 °F (Nov 2, 8:50 am)100% (Oct 28, 4:50 am)30.39 "Hg (Oct 28, 4:50 am)
Low30 °F (Nov 1, 12:20 am)62% (Oct 29, 2:20 pm)29.06 "Hg (Nov 3, 2:50 pm)
Average45 °F86%29.71 "Hg
* Reported Oct 27 7:20 pm — Nov 11 7:20 pm, Arnsberg. Weather by CustomWeather, © 2019

Note: Actual official high and low records may vary slightly from our data, if they occured in-between our weather recording intervals... More about our weather records

Advertising

Arnsberg Weather History for the Previous 24 Hours

Scroll right to see more
 ConditionsComfort  
Time TempWeatherWind HumidityBarometerVisibility
7:20 pm
Mon, Nov 11
41 °FPassing clouds.15 mph81%29.56 "HgN/A
6:50 pm41 °FPartly cloudy.15 mph81%29.56 "HgN/A
6:20 pm41 °FPassing clouds.16 mph81%29.56 "HgN/A
5:50 pm41 °FPassing clouds.14 mph81%29.56 "HgN/A
5:20 pm43 °FClear.15 mph76%29.56 "Hg10 mi
4:50 pm43 °FPassing clouds.14 mph76%29.59 "HgN/A
4:20 pm43 °FSunny.15 mph76%29.59 "Hg10 mi
3:50 pm43 °FBroken clouds.15 mph76%29.59 "HgN/A
3:20 pm45 °FPartly sunny.12 mph71%29.62 "HgN/A
2:50 pm45 °FPartly sunny.12 mph71%29.62 "HgN/A
2:20 pm45 °FPartly sunny.13 mph71%29.62 "HgN/A
1:50 pm45 °FMostly cloudy.14 mph71%29.65 "HgN/A
1:20 pm43 °FPartly sunny.14 mph76%29.68 "HgN/A
12:50 pm45 °FScattered clouds.16 mph71%29.68 "HgN/A
12:20 pm45 °FSunny.15 mph71%29.68 "Hg10 mi
11:50 am43 °FSunny.16 mph76%29.71 "Hg10 mi
11:20 am41 °FSunny.10 mph81%29.71 "Hg10 mi
10:50 am41 °FPassing clouds.9 mph81%29.74 "HgN/A
10:20 am41 °FPassing clouds.6 mph81%29.74 "HgN/A
9:50 am39 °FPartly sunny.6 mph87%29.77 "HgN/A
9:20 am39 °FPartly sunny.9 mph81%29.77 "HgN/A
8:50 am39 °FOvercast.12 mph81%29.77 "HgN/A
8:20 am39 °FOvercast.9 mph81%29.80 "HgN/A
7:50 am37 °FOvercast.12 mph87%29.80 "HgN/A
7:20 am37 °FOvercast.9 mph87%29.80 "HgN/A
6:50 am37 °FOvercast.9 mph87%29.83 "HgN/A
6:20 am36 °FOvercast.12 mph93%29.83 "HgN/A
5:50 am36 °FPassing clouds.12 mph93%29.86 "HgN/A
5:20 am34 °FPassing clouds.13 mph93%29.86 "HgN/A
4:50 am34 °FClear.13 mph93%29.89 "HgN/A
4:20 am34 °FClear.13 mph93%29.89 "HgN/A
3:50 am34 °FClear.14 mph93%29.89 "HgN/A
3:20 am34 °FClear.14 mph93%29.89 "HgN/A
2:50 am34 °FClear.13 mph93%29.92 "HgN/A
2:20 am34 °FClear.14 mph93%29.92 "HgN/A
1:50 am34 °FClear.15 mph93%29.92 "HgN/A
1:20 am36 °FClear.13 mph87%29.92 "HgN/A
12:50 am34 °FClear.10 mph93%29.92 "HgN/A
12:20 am36 °FClear.9 mph87%29.92 "HgN/A
11:50 pm
Sun, Nov 10
36 °FClear.9 mph87%29.92 "HgN/A
11:20 pm36 °FClear.8 mph87%29.92 "HgN/A
10:50 pm36 °FClear.8 mph87%29.95 "HgN/A
10:20 pm34 °FClear.8 mph100%29.95 "HgN/A
9:50 pm36 °FClear.8 mph93%29.95 "HgN/A
9:20 pm36 °FClear.8 mph87%29.95 "Hg10 mi
8:50 pm34 °FClear.8 mph100%29.98 "Hg10 mi
8:20 pm36 °FClear.8 mph93%29.95 "Hg10 mi
Weather by CustomWeather, © 2019

See weather overview